This demonstration page uses our WeatherBlox Daily Observations layout. Learn more.

Left ArrowRight Arrow

Hourly Observations for November 4, 2015

Temp ( °F °C ) Dew Point ( °F °C ) Humidity (%) Winds ( mph kmh ) Pressure ( in mb ) Visibility ( mi km ) Precip ( " mm )
12:53 am 00:53 Clear 47 8.3 28 -2.2 48 48 NNE 7 11 30.01 1016 10 16 0.00 0.00
1:53 am 01:53 Clear 47 8.3 29 -1.7 50 50 N 3 6 30.02 1017 10 16 0.00 0.00
2:53 am 02:53 Clear 43 6.1 30 -1.1 60 60 NW 5 7 30.04 1017 10 16 0.00 0.00
3:53 am 03:53 Clear 41 5 30 -1.1 65 65 Calm 30.04 1017 10 16 0.00 0.00
4:53 am 04:53 Clear 42 5.6 30 -1.1 62 62 NNW 7 11 30.06 1018 10 16 0.00 0.00
5:53 am 05:53 Clear 39 3.9 30 -1.1 70 70 N 3 6 30.08 1019 10 16 0.00 0.00
6:53 am 06:53 Sunny 46 7.8 29 -1.7 51 51 N 10 17 30.09 1019 10 16 0.00 0.00
7:53 am 07:53 Sunny 49 9.4 29 -1.7 46 46 N 8 13 30.11 1020 10 16 0.00 0.00
8:53 am 08:53 Sunny 54 12.2 29 -1.7 38 38 N 12 19 30.11 1020 10 16 0.00 0.00
9:53 am 09:53 Sunny 58 14.4 26 -3.3 29 29 N 10 17 30.11 1020 10 16 0.00 0.00
10:53 am 10:53 Sunny 61 16.1 22 -5.6 22 22 NNE 18 30 30.10 1019 10 16 0.00 0.00
11:53 am 11:53 Sunny 63 17.2 23 -5 22 22 NNE 10 17 30.09 1019 10 16 0.00 0.00
12:53 pm 12:53 Sunny 63 17.2 23 -5 22 22 NNW 9 15 30.06 1018 10 16 0.00 0.00
1:53 pm 13:53 Sunny 66 18.9 22 -5.6 19 19 NE 12 19 30.05 1018 10 16 0.00 0.00
2:53 pm 14:53 Sunny 66 18.9 21 -6.1 18 18 N 7 11 30.04 1017 10 16 0.00 0.00
3:53 pm 15:53 Sunny 66 18.9 21 -6.1 18 18 NNE 3 6 30.04 1017 10 16 0.00 0.00
4:53 pm 16:53 Sunny 62 16.7 23 -5 22 22 Calm 30.04 1017 10 16 0.00 0.00
5:53 pm 17:53 Clear 55 12.8 25 -3.9 31 31 Calm 30.06 1018 10 16 0.00 0.00
6:53 pm 18:53 Clear 54 12.2 25 -3.9 33 33 N 3 6 30.08 1019 10 16 0.00 0.00
7:53 pm 19:53 Clear 50 10 27 -2.8 41 41 WNW 3 6 30.10 1019 10 16 0.00 0.00
8:53 pm 20:53 Clear 46 7.8 27 -2.8 47 47 N 3 6 30.11 1020 10 16 0.00 0.00
9:53 pm 21:53 Clear 44 6.7 28 -2.2 53 53 NNW 3 6 30.13 1020 10 16 0.00 0.00
10:53 pm 22:53 Clear 43 6.1 29 -1.7 58 58 NNW 3 6 30.13 1020 10 16 0.00 0.00
11:53 pm 23:53 Clear 40 4.4 27 -2.8 60 60 undefined N/A 30.14 1021 10 16 0.00 0.00

Powered by AerisWeather